Location: Innerarity Island Observatory
(30.3139°N, 87.4867°W)
Time: 04:49:31
(UTC-05:00)

Amateur Radio Satellites - All Passes

Search period start: 21 April 2015 04:19
Search period end: 22 April 2015 04:19
Location: Innerarity Island Observatory, 30.3139°N, 87.4867°W

Satellite Date Start Highest point End Downlink Frequencies (MHz)
Time Altitude Azimuth
BEESAT 2 21 Apr 04:26:27 04:30:18 39° 301° (WNW) 04:34:11 435.950
CUSAT 1 21 Apr 04:31:26 04:38:27 43° 78° (ENE) 04:46:19 437.405
Gurwin Techsat 1B 21 Apr 04:31:29 04:35:13 19° 291° (WNW) 04:38:44 435.225
BEESAT 3 21 Apr 04:32:16 04:35:48 27° 303° (WNW) 04:39:20 437.485
ITAMSAT 1 21 Apr 04:33:07 04:36:06 15° 292° (WNW) 04:38:49 435.822/435.867
HORYU 2 21 Apr 04:34:18 04:38:48 76° 283° (WNW) 04:43:16 437.375
DANDE 21 Apr 04:36:24 04:43:02 37° 77° (ENE) 04:50:45 436.750
AIST 2 21 Apr 04:54:12 04:58:24 68° 298° (WNW) 05:02:41 435.215
SRMSAT 21 Apr 05:02:09 05:06:44 24° 170° (S) 05:11:23 437.500
JUGNU 21 Apr 05:02:28 05:07:31 29° 179° (S) 05:12:31 437.505
MOZHAYETS 4 21 Apr 05:19:31 05:23:56 44° 261° (W) 05:28:23
AO-7 21 Apr 05:22:34 05:30:51 72° 288° (WNW) 05:39:08 29.400- 29.500
M-CUBED/EXP-1 PRIME 21 Apr 05:23:58 05:27:57 29° 68° (ENE) 05:32:08 437.505
JAS-2 21 Apr 05:46:25 05:52:10 34° 291° (WNW) 05:57:14 435.910
GONETS M04 21 Apr 06:05:37 06:12:53 28° 273° (W) 06:19:49
AUBIESAT-1 21 Apr 06:10:29 06:15:07 87° 72° (ENE) 06:19:56 437.475
CUSAT 1 21 Apr 06:14:21 06:21:08 35° 268° (W) 06:28:19 437.405
PRISM 21 Apr 06:15:02 06:18:34 27° 73° (ENE) 06:22:09 437.425
DANDE 21 Apr 06:19:26 06:26:18 40° 267° (W) 06:33:56 436.750
STRAND 1 21 Apr 06:21:05 06:25:16 27° 71° (ENE) 06:29:34 437.568
Cosmos 2499 21 Apr 06:34:38 06:42:27 75° 83° (E) 06:49:43 435.465 / 435.565
CUBESAT XI-V 21 Apr 06:41:11 06:45:51 85° 258° (WSW) 06:50:30 437.345
CUTE-I 21 Apr 06:42:28 06:47:32 45° 99° (E) 06:52:37 437.470
SRMSAT 21 Apr 06:50:22 06:55:26 30° 180° (S) 07:00:31 437.500
Cubesat XI-IV 21 Apr 06:50:25 06:55:36 55° 100° (E) 07:00:50 437.490
JUGNU 21 Apr 06:51:21 06:56:03 25° 189° (S) 07:00:43 437.505
M-CUBED/EXP-1 PRIME 21 Apr 06:59:01 07:02:46 23° 261° (W) 07:06:32 437.505
AO-7 21 Apr 07:19:36 07:22:31 12° 303° (WNW) 07:24:47 29.400- 29.500
PRISM 21 Apr 07:51:12 07:54:03 17° 265° (W) 07:56:45 437.425
STRAND 1 21 Apr 08:00:05 08:04:24 27° 264° (W) 08:08:38 437.568
CUTE-I 21 Apr 08:23:47 08:27:19 18° 291° (WNW) 08:30:37 437.470
Cosmos 2499 21 Apr 08:30:55 08:34:43 14° 277° (W) 08:37:51 435.465 / 435.565
Cubesat XI-IV 21 Apr 08:32:24 08:35:19 14° 292° (WNW) 08:37:57 437.490
BRITE-PL 21 Apr 08:34:41 08:39:28 42° 99° (E) 08:44:36 437.365/2234.400
SRMSAT 21 Apr 08:39:26 08:44:09 25° 189° (S) 08:48:51 437.500
JUGNU 21 Apr 08:41:35 08:44:32 14° 197° (SSW) 08:47:21 437.505
HO-68 21 Apr 08:42:01 08:48:03 30° 96° (E) 08:54:13 435.675
GOMX 1 21 Apr 08:48:18 08:53:01 37° 98° (E) 08:58:00 467.674
COMPASS 1 21 Apr 08:50:25 08:52:38 14° 93° (E) 08:55:02 437.405
PCSat 21 Apr 09:00:54 09:06:14 64° 111° (ESE) 09:11:36 145.827
CANX-2 21 Apr 09:06:15 09:10:19 42° 98° (E) 09:14:21 2200.000
SEEDS 21 Apr 09:06:40 09:10:24 30° 97° (E) 09:14:08 437.485
CUTE 1.7 + AOD 2 21 Apr 09:16:06 09:20:16 50° 99° (E) 09:24:24 437.475
O/OREOS (USA 219) 21 Apr 09:17:21 09:21:35 40° 68° (ENE) 09:25:47 437.305
CINEMA 3 21 Apr 09:33:32 09:38:06 36° 97° (E) 09:42:45 145.822/145.860
AAUSAT CUBESAT 2 21 Apr 09:35:46 09:39:49 47° 99° (E) 09:43:50 437.432
Cosmos 2491 21 Apr 09:43:59 09:51:12 29° 73° (ENE) 09:58:42 435.465 / 435.565
DELFI C3 21 Apr 09:44:47 09:47:26 17° 94° (E) 09:50:13 145.870
DOVE 4 21 Apr 09:48:56 09:54:01 74° 283° (WNW) 09:59:17 437.250
TIGRISAT 21 Apr 09:53:11 09:56:06 18° 71° (ENE) 09:59:15 435.000
ZACube-1 21 Apr 09:54:27 09:57:34 18° 93° (E) 10:00:50 437.345
UNISAT 6 21 Apr 09:54:56 09:58:04 20° 71° (ENE) 10:01:24 437.425
Oscar 11 21 Apr 10:04:47 10:08:57 46° 99° (E) 10:13:08 145.826/435.025
CUBEBUG 2 21 Apr 10:06:29 10:11:00 42° 98° (E) 10:15:32 437.445
QB50P1 21 Apr 10:10:16 10:11:53 12° 70° (ENE) 10:13:44 145.935-145.965
BRITE-PL 21 Apr 10:14:16 10:17:47 18° 288° (WNW) 10:21:13 437.365/2234.400
COMPASS 1 21 Apr 10:24:40 10:28:27 32° 286° (WNW) 10:32:09 437.405
GOMX 1 21 Apr 10:27:08 10:30:56 21° 288° (WNW) 10:34:42 467.674
HO-68 21 Apr 10:29:12 10:35:52 41° 290° (WNW) 10:42:24 435.675
HUMSAT D 21 Apr 10:29:57 10:33:11 21° 95° (E) 10:36:30 437.325/437.525
SRMSAT 21 Apr 10:29:59 10:32:49 13° 197° (SSW) 10:35:31 437.500
DX 1 21 Apr 10:30:10 10:33:51 27° 97° (E) 10:37:37 434.975-435.025
QB50P2 21 Apr 10:32:38 10:36:00 24° 73° (ENE) 10:39:28 145.880/145.840
ANTELSAT 21 Apr 10:35:24 10:39:45 61° 76° (ENE) 10:44:16 437.575/2403.000
UWE-3 21 Apr 10:43:05 10:47:48 88° 290° (WNW) 10:52:29 435.000/436.395/437.385
SEEDS 21 Apr 10:43:15 10:45:59 16° 289° (WNW) 10:48:32 437.485
YUBILEINY 21 Apr 10:43:50 10:51:42 39° 89° (E) 10:59:44 435.215
CANX-2 21 Apr 10:44:06 10:45:55 12° 290° (WNW) 10:47:30 2200.000
PCSat 21 Apr 10:47:07 10:50:10 15° 309° (NW) 10:52:58 145.827
50 SAT 21 Apr 10:52:06 10:55:13 22° 95° (E) 10:58:24 437.505
NANOSAT C BR1 21 Apr 10:53:42 10:57:39 43° 75° (ENE) 11:01:40 145.865
POPSAT HIP 1 21 Apr 10:54:33 10:58:32 44° 75° (ENE) 11:02:34 437.405
CUTE 1.7 + AOD 2 21 Apr 10:55:10 10:55:47 10° 291° (WNW) 10:56:08 437.475
O/OREOS (USA 219) 21 Apr 10:58:34 11:00:40 13° 259° (W) 11:02:30 437.305
FUNcube-1 21 Apr 11:06:10 11:10:42 61° 284° (WNW) 11:15:13 145.935
CINEMA 3 21 Apr 11:11:28 11:15:03 20° 289° (WNW) 11:18:30 145.822/145.860
AAUSAT CUBESAT 2 21 Apr 11:14:25 11:15:03 10° 290° (WNW) 11:15:25 437.432
VELOX 1 21 Apr 11:17:14 11:21:27 43° 99° (E) 11:25:41 145.980
DELFI C3 21 Apr 11:19:15 11:22:35 24° 287° (WNW) 11:25:49 145.870
UKube-1 21 Apr 11:19:50 11:24:10 74° 284° (WNW) 11:28:28 .
POLYITAN 1 21 Apr 11:21:44 11:25:55 77° 258° (WSW) 11:30:09 437.675
TIGRISAT 21 Apr 11:28:45 11:32:39 30° 263° (W) 11:36:36 435.000
DUCHIFAT 1 21 Apr 11:29:02 11:33:10 64° 259° (W) 11:37:20 145.980
SO-50 21 Apr 11:29:34 11:32:07 15° 109° (ESE) 11:34:56 436.795
ZACube-1 21 Apr 11:29:53 11:33:59 31° 287° (WNW) 11:37:59 437.345
UNISAT 6 21 Apr 11:30:51 11:34:42 28° 264° (W) 11:38:32 437.425
AISAT 21 Apr 11:32:55 11:37:21 72° 101° (E) 11:41:49 437.250
CUBEBUG 1 21 Apr 11:37:21 11:41:14 32° 97° (E) 11:45:12 437.445
Cosmos 2491 21 Apr 11:39:58 11:48:23 49° 269° (W) 11:56:42 435.465 / 435.565
Oscar 11 21 Apr 11:43:14 11:44:47 11° 290° (WNW) 11:46:03 145.826/435.025
QB50P1 21 Apr 11:43:29 11:47:26 40° 261° (W) 11:51:24 145.935-145.965
CUBEBUG 2 21 Apr 11:44:31 11:47:22 15° 290° (WNW) 11:50:01 437.445
BUGSAT 1 21 Apr 11:45:56 11:49:53 55° 260° (W) 11:53:51 437.445
ESTCUBE 1 21 Apr 11:54:39 11:59:05 63° 101° (E) 12:03:31 437.505/2401.250
HUMSAT D 21 Apr 12:05:20 12:08:53 24° 287° (WNW) 12:12:21 437.325/437.525
DX 1 21 Apr 12:06:48 12:09:58 19° 289° (WNW) 12:12:58 434.975-435.025
QB50P2 21 Apr 12:08:46 12:11:53 19° 265° (W) 12:14:53 145.880/145.840
50 SAT 21 Apr 12:26:54 12:29:57 20° 288° (WNW) 12:32:52 437.505
NANOSAT C BR1 21 Apr 12:32:50 12:33:47 10° 269° (W) 12:34:25 145.865
POPSAT HIP 1 21 Apr 12:34:08 12:34:43 10° 269° (W) 12:34:57 437.405
Cosmos 2504 21 Apr 12:38:05 12:43:03 18° 84° (E) 12:48:40 435.465 / 435.565
YUBILEINY 21 Apr 12:40:31 12:48:32 36° 284° (WNW) 12:56:24 435.215
ISS 21 Apr 12:44:34 12:47:44 51° 132° (SE) 12:50:54 145.825
AIST 1 21 Apr 12:47:30 12:51:46 89° 79° (E) 12:56:02
BEESAT 2 21 Apr 12:51:35 12:54:42 21° 55° (NE) 12:57:53 435.950
VELOX 1 21 Apr 12:55:34 12:57:42 13° 290° (WNW) 12:59:36 145.980
BEESAT 3 21 Apr 12:56:11 12:59:44 28° 57° (ENE) 13:03:16 437.485
TISAT 1 21 Apr 13:04:49 13:09:03 72° 101° (E) 13:13:18 437.305
SO-50 21 Apr 13:07:58 13:12:19 41° 302° (WNW) 13:16:49 436.795
CUBEBUG 1 21 Apr 13:14:38 13:17:24 16° 289° (WNW) 13:19:59 437.445
SPROUT 21 Apr 13:16:45 13:21:02 61° 284° (WNW) 13:25:18 437.525
AIST 2 21 Apr 13:22:46 13:25:07 15° 51° (NE) 13:27:37 435.215
Oscar 19 21 Apr 13:40:02 13:45:11 88° 68° (ENE) 13:50:22 437.125/150
RS-15 21 Apr 13:41:06 13:49:30 28° 106° (ESE) 13:58:24 29.354- 29.394
ITAMSAT 1 21 Apr 14:04:19 14:09:11 43° 73° (ENE) 14:14:05 435.822/435.867
ITUPSAT 1 21 Apr 14:04:46 14:09:17 43° 99° (E) 14:13:48 437.325
Gurwin Techsat 1B 21 Apr 14:06:02 14:10:51 37° 73° (ENE) 14:15:45 435.225
ISS 21 Apr 14:22:46 14:24:21 13° 327° (NNW) 14:25:50 145.825
AO-7 21 Apr 14:26:36 14:31:04 17° 60° (ENE) 14:36:00 29.400- 29.500
Cosmos 2504 21 Apr 14:26:57 14:35:44 78° 277° (W) 14:44:39 435.465 / 435.565
BEESAT 2 21 Apr 14:29:27 14:32:47 24° 248° (WSW) 14:36:00 435.950
BEESAT 3 21 Apr 14:34:52 14:37:33 17° 250° (WSW) 14:40:05 437.485
BEESAT 21 Apr 14:38:33 14:43:19 74° 283° (WNW) 14:48:02 436.000
SWISSCUBE 21 Apr 14:40:17 14:45:00 64° 284° (WNW) 14:49:41 437.505
AIST 2 21 Apr 14:59:59 15:03:55 38° 247° (WSW) 15:07:45 435.215
STARS 21 Apr 15:20:52 15:24:48 31° 97° (E) 15:28:45 437.465
HORYU 2 21 Apr 15:26:50 15:31:07 47° 75° (ENE) 15:35:27 437.375
ITUPSAT 1 21 Apr 15:44:06 15:46:52 15° 291° (WNW) 15:49:24 437.325
ITAMSAT 1 21 Apr 15:45:31 15:48:54 17° 267° (W) 15:52:03 435.822/435.867
Gurwin Techsat 1B 21 Apr 15:47:02 15:50:58 20° 266° (W) 15:54:43 435.225
JAS-2 21 Apr 15:48:35 15:56:06 58° 73° (ENE) 16:03:45 435.910
RS-15 21 Apr 15:50:27 16:01:14 63° 302° (WNW) 16:12:07 29.354- 29.394
KKS-1 21 Apr 15:50:44 15:55:12 66° 284° (WNW) 15:59:38 437.445
AO-7 21 Apr 16:14:42 16:23:00 87° 251° (WSW) 16:31:20 29.400- 29.500
Cosmos 2504 21 Apr 16:27:35 16:30:50 12° 296° (WNW) 16:33:12 435.465 / 435.565
STARS 21 Apr 16:57:59 17:01:03 18° 289° (WNW) 17:03:58 437.465
VERMONT LUNAR 21 Apr 16:58:28 17:01:13 24° 143° (SE) 17:04:02 437.305
GONETS M04 21 Apr 17:01:08 17:09:44 69° 93° (E) 17:18:28
HORYU 2 21 Apr 17:06:36 17:08:05 11° 269° (W) 17:09:15 437.375
MOZHAYETS 4 21 Apr 17:20:15 17:24:50 68° 101° (E) 17:29:22
JAS-2 21 Apr 17:35:17 17:41:28 25° 268° (W) 17:47:26 435.910
CUSAT 1 21 Apr 17:36:20 17:39:00 34° 92° (E) 17:42:20 437.405
DANDE 21 Apr 17:45:50 17:48:15 28° 92° (E) 17:51:08 436.750
PCSat 21 Apr 17:56:02 17:59:15 16° 52° (NE) 18:02:41 145.827
CUTE-I 21 Apr 17:58:45 18:03:43 42° 73° (ENE) 18:08:44 437.470
Cubesat XI-IV 21 Apr 18:06:45 18:11:54 52° 74° (ENE) 18:17:05 437.490
RS-15 21 Apr 18:10:39 18:16:39 15° 328° (NNW) 18:22:06 29.354- 29.394
AO-7 21 Apr 18:13:31 18:16:56 12° 270° (W) 18:19:34 29.400- 29.500
PHONESAT 2.4 21 Apr 18:17:45 18:21:06 38° 145° (SE) 18:24:28 2401.200-2431.200
VERMONT LUNAR 21 Apr 18:35:22 18:38:37 44° 335° (NNW) 18:41:54 437.305
STRAND 1 21 Apr 18:38:31 18:41:01 14° 92° (E) 18:43:49 437.568
CUBESAT XI-V 21 Apr 18:43:57 18:48:12 37° 98° (E) 18:52:28 437.345
M-CUBED/EXP-1 PRIME 21 Apr 18:46:09 18:50:15 50° 103° (ESE) 18:54:01 437.505
GONETS M04 21 Apr 19:01:13 19:07:27 20° 291° (WNW) 19:13:12
Cosmos 2499 21 Apr 19:01:44 19:10:29 73° 93° (E) 19:19:17 435.465 / 435.565
HO-68 21 Apr 19:08:22 19:10:37 12° 61° (ENE) 19:13:25 435.675
AUBIESAT-1 21 Apr 19:32:56 19:36:55 42° 290° (WNW) 19:40:33 437.475
PCSat 21 Apr 19:37:48 19:43:05 56° 249° (WSW) 19:48:21 145.827
PRISM 21 Apr 19:37:48 19:41:54 78° 284° (WNW) 19:45:58 437.425
CUTE-I 21 Apr 19:40:21 19:44:00 18° 267° (W) 19:47:26 437.470
BRITE-PL 21 Apr 19:41:48 19:44:51 21° 72° (ENE) 19:48:01 437.365/2234.400
Cubesat XI-IV 21 Apr 19:49:22 19:52:21 14° 268° (W) 19:55:01 437.490
GOMX 1 21 Apr 19:52:55 19:55:31 17° 71° (ENE) 19:58:20 467.674
CANX-2 21 Apr 19:55:00 19:57:27 15° 71° (ENE) 20:00:05 2200.000
SEEDS 21 Apr 19:55:46 19:56:48 11° 70° (ENE) 19:58:05 437.485
PHONESAT 2.4 21 Apr 19:56:04 19:59:23 34° 338° (NNW) 20:02:42 2401.200-2431.200
CUTE 1.7 + AOD 2 21 Apr 20:04:25 20:07:16 18° 72° (ENE) 20:10:16 437.475
VERMONT LUNAR 21 Apr 20:14:26 20:16:41 16° 351° (N) 20:18:54 437.305
STRAND 1 21 Apr 20:15:38 20:20:32 48° 286° (WNW) 20:25:24 437.568
AAUSAT CUBESAT 2 21 Apr 20:22:18 20:24:50 16° 71° (ENE) 20:27:33 437.432
CUBESAT XI-V 21 Apr 20:22:31 20:25:23 16° 289° (WNW) 20:28:02 437.345
M-CUBED/EXP-1 PRIME 21 Apr 20:24:01 20:24:37 10° 298° (WNW) 20:24:56 437.505
CINEMA 3 21 Apr 20:31:36 20:33:56 15° 70° (ENE) 20:36:31 145.822/145.860
DOVE 4 21 Apr 20:49:36 20:53:38 55° 76° (ENE) 20:57:48 437.250
HO-68 21 Apr 20:50:19 20:57:30 84° 75° (ENE) 21:04:44 435.675
ISS 21 Apr 20:52:30 20:55:39 45° 43° (NE) 20:58:46 145.825
Oscar 11 21 Apr 20:54:59 20:57:53 18° 72° (ENE) 21:00:56 145.826/435.025
Cosmos 2499 21 Apr 20:58:12 21:04:30 20° 291° (WNW) 21:10:16 435.465 / 435.565
CUBEBUG 2 21 Apr 21:00:36 21:03:16 17° 71° (ENE) 21:06:09 437.445
YUBILEINY 21 Apr 21:04:13 21:07:14 13° 65° (ENE) 21:11:02 435.215
COMPASS 1 21 Apr 21:09:32 21:13:45 78° 78° (ENE) 21:18:01 437.405
BRITE-PL 21 Apr 21:20:10 21:23:22 21° 265° (W) 21:26:27 437.365/2234.400
DX 1 21 Apr 21:22:22 21:23:55 12° 69° (ENE) 21:25:43 434.975-435.025
SEEDS 21 Apr 21:28:08 21:32:14 46° 261° (W) 21:36:21 437.485
CANX-2 21 Apr 21:29:15 21:33:08 33° 263° (W) 21:37:01 2200.000
GOMX 1 21 Apr 21:30:01 21:33:32 26° 264° (W) 21:37:02 467.674
UWE-3 21 Apr 21:34:56 21:38:47 35° 74° (ENE) 21:42:48 435.000/436.395/437.385
PHONESAT 2.4 21 Apr 21:35:57 21:38:18 16° 355° (N) 21:40:39 2401.200-2431.200
CUTE 1.7 + AOD 2 21 Apr 21:39:18 21:43:01 28° 264° (W) 21:46:41 437.475
SO-50 21 Apr 21:44:45 21:49:20 38° 57° (ENE) 21:53:54 436.795
VERMONT LUNAR 21 Apr 21:52:50 21:55:01 16° 8° (N) 21:57:13 437.305
FUNcube-1 21 Apr 21:56:13 22:00:18 49° 75° (ENE) 22:04:32 145.935
AAUSAT CUBESAT 2 21 Apr 21:56:31 22:00:15 30° 263° (W) 22:03:57 437.432
DELFI C3 21 Apr 22:00:11 22:04:16 89° 84° (E) 22:08:23 145.870
CINEMA 3 21 Apr 22:07:05 22:10:53 32° 263° (W) 22:14:47 145.822/145.860
UKube-1 21 Apr 22:09:06 22:13:10 42° 74° (ENE) 22:17:16 .
VELOX 1 21 Apr 22:10:18 22:13:23 19° 71° (ENE) 22:16:35 145.980
ZACube-1 21 Apr 22:19:36 22:23:50 79° 259° (WSW) 22:28:13 437.345
AISAT 21 Apr 22:25:34 22:29:24 30° 73° (ENE) 22:33:17 437.250
CUBEBUG 1 21 Apr 22:29:40 22:31:48 14° 70° (ENE) 22:34:09 437.445
Oscar 11 21 Apr 22:30:06 22:33:53 28° 263° (W) 22:37:37 145.826/435.025
ANTELSAT 21 Apr 22:33:58 22:37:30 22° 94° (E) 22:41:08 437.575/2403.000
CUBEBUG 2 21 Apr 22:35:59 22:39:45 30° 264° (W) 22:43:34 437.445
Cosmos 2491 21 Apr 22:37:34 22:45:22 40° 89° (E) 22:53:22 435.465 / 435.565
HO-68 21 Apr 22:42:55 22:46:05 13° 270° (W) 22:48:38 435.675
NANOSAT C BR1 21 Apr 22:46:35 22:47:52 11° 92° (E) 22:49:27 145.865
RS-15 21 Apr 22:47:26 22:55:43 23° 41° (NE) 23:04:46 29.354- 29.394
POPSAT HIP 1 21 Apr 22:47:31 22:49:02 12° 92° (E) 22:50:50 437.405
ESTCUBE 1 21 Apr 22:49:03 22:52:54 29° 73° (ENE) 22:56:50 437.505/2401.250
HUMSAT D 21 Apr 22:50:35 22:54:44 72° 259° (W) 22:58:58 437.325/437.525
DX 1 21 Apr 22:55:42 22:59:50 44° 261° (W) 23:03:58 434.975-435.025
YUBILEINY 21 Apr 22:56:46 23:05:34 86° 85° (E) 23:14:16 435.215
50 SAT 21 Apr 23:05:33 23:09:30 77° 258° (WSW) 23:13:31 437.505
UWE-3 21 Apr 23:13:13 23:15:32 14° 268° (W) 23:17:39 435.000/436.395/437.385
POLYITAN 1 21 Apr 23:13:23 23:17:01 27° 96° (E) 23:20:44 437.675
PHONESAT 2.4 21 Apr 23:14:41 23:17:24 20° 12° (NNE) 23:20:06 2401.200-2431.200
DUCHIFAT 1 21 Apr 23:19:47 23:23:34 31° 97° (E) 23:27:23 145.980
O/OREOS (USA 219) 21 Apr 23:23:26 23:27:57 56° 291° (WNW) 23:32:26 437.305
TIGRISAT 21 Apr 23:25:30 23:30:14 86° 102° (ESE) 23:34:54 435.000
SO-50 21 Apr 23:26:09 23:29:39 19° 250° (WSW) 23:32:56 436.795
UNISAT 6 21 Apr 23:27:46 23:32:30 86° 285° (WNW) 23:37:10 437.425
VERMONT LUNAR 21 Apr 23:29:51 23:33:05 42° 24° (NNE) 23:36:17 437.305
BUGSAT 1 21 Apr 23:33:56 23:37:35 31° 97° (E) 23:41:21 437.445
QB50P1 21 Apr 23:34:04 23:38:14 49° 99° (E) 23:42:24 145.935-145.965
VELOX 1 21 Apr 23:46:00 23:49:48 27° 263° (W) 23:53:31 145.980
UKube-1 21 Apr 23:47:58 23:49:34 11° 268° (W) 23:50:52 .
TISAT 1 21 Apr 23:52:05 23:55:26 24° 73° (ENE) 23:58:53 437.305
QB50P2 21 Apr 23:58:26 00:02:44 78° 282° (WNW) 00:07:01 145.880/145.840
AISAT 22 Apr 00:03:07 00:06:04 17° 266° (W) 00:08:50 437.250
CUBEBUG 1 22 Apr 00:03:52 00:07:54 37° 262° (W) 00:11:54 437.445
SPROUT 22 Apr 00:05:12 00:09:16 46° 75° (ENE) 00:13:24 437.525
ANTELSAT 22 Apr 00:10:14 00:14:17 28° 288° (WNW) 00:18:12 437.575/2403.000
NANOSAT C BR1 22 Apr 00:19:54 00:23:58 42° 285° (WNW) 00:28:00 145.865
POPSAT HIP 1 22 Apr 00:21:05 00:25:08 40° 285° (WNW) 00:29:09 437.405
ESTCUBE 1 22 Apr 00:26:31 00:29:48 19° 266° (W) 00:32:57 437.505/2401.250
Cosmos 2504 22 Apr 00:28:53 00:35:22 28° 73° (ENE) 00:41:44 435.465 / 435.565
Cosmos 2491 22 Apr 00:34:26 00:42:16 35° 285° (WNW) 00:49:59 435.465 / 435.565
POLYITAN 1 22 Apr 00:49:40 00:52:46 19° 288° (WNW) 00:55:44 437.675
PHONESAT 2.4 22 Apr 00:52:30 00:56:04 67° 28° (NNE) 00:59:35 2401.200-2431.200
DUCHIFAT 1 22 Apr 00:56:25 00:59:10 16° 289° (WNW) 01:01:46 145.980
YUBILEINY 22 Apr 00:57:13 01:01:29 14° 277° (W) 01:04:58 435.215
RS-15 22 Apr 00:58:19 01:10:04 87° 63° (ENE) 01:22:17 29.354- 29.394
ITUPSAT 1 22 Apr 01:06:25 01:10:22 27° 72° (ENE) 01:14:25 437.325
VERMONT LUNAR 22 Apr 01:07:41 01:10:29 24° 217° (SW) 01:13:14 437.305
BUGSAT 1 22 Apr 01:10:21 01:12:52 15° 289° (WNW) 01:15:14 437.445
AIST 1 22 Apr 01:10:48 01:15:06 70° 95° (E) 01:19:23
QB50P1 22 Apr 01:12:40 01:13:44 11° 291° (WNW) 01:14:31 145.935-145.965
JUGNU 22 Apr 01:12:54 01:15:28 13° 163° (SSE) 01:18:10 437.505
TISAT 1 22 Apr 01:28:09 01:31:12 19° 265° (W) 01:34:09 437.305
BEESAT 22 Apr 01:39:10 01:43:54 65° 76° (ENE) 01:48:40 436.000
SWISSCUBE 22 Apr 01:40:55 01:45:41 75° 76° (ENE) 01:50:29 437.505
Oscar 19 22 Apr 01:57:33 02:02:36 51° 100° (E) 02:07:39 437.125/150
STARS 22 Apr 02:13:58 02:16:05 14° 70° (ENE) 02:18:25 437.465
Cosmos 2504 22 Apr 02:21:35 02:29:05 44° 270° (W) 02:35:59 435.465 / 435.565
ITAMSAT 1 22 Apr 02:23:27 02:27:35 25° 96° (E) 02:31:50 435.822/435.867
Gurwin Techsat 1B 22 Apr 02:28:27 02:32:38 24° 95° (E) 02:36:57 435.225
PHONESAT 2.4 22 Apr 02:31:46 02:34:04 16° 219° (SW) 02:36:17 2401.200-2431.200
BEESAT 2 22 Apr 02:41:02 02:43:23 15° 110° (ESE) 02:45:55 435.950
KKS-1 22 Apr 02:43:09 02:47:26 53° 76° (ENE) 02:51:47 437.445
ITUPSAT 1 22 Apr 02:44:20 02:48:14 24° 264° (W) 02:52:01 437.325
BEESAT 3 22 Apr 02:44:24 02:47:25 21° 111° (ESE) 02:50:36 437.485
JUGNU 22 Apr 02:59:19 03:03:59 24° 170° (S) 03:08:39 437.505
SRMSAT 22 Apr 03:02:21 03:05:15 14° 163° (SSE) 03:08:15 437.500
RS-15 22 Apr 03:13:45 03:21:39 19° 256° (WSW) 03:28:42 29.354- 29.394
AIST 2 22 Apr 03:16:48 03:18:02 11° 109° (ESE) 03:19:32 435.215
GONETS M04 22 Apr 03:19:42 03:26:31 25° 72° (ENE) 03:33:38
HORYU 2 22 Apr 03:25:20 03:27:47 15° 93° (E) 03:30:27 437.375
Oscar 19 22 Apr 03:38:34 03:41:35 15° 292° (WNW) 03:44:20 437.125/150
STARS 22 Apr 03:48:09 03:52:14 39° 261° (W) 03:56:20 437.465
ITAMSAT 1 22 Apr 04:02:36 04:07:05 29° 288° (WNW) 04:11:28 435.822/435.867
Gurwin Techsat 1B 22 Apr 04:07:58 04:12:38 31° 288° (WNW) 04:17:13 435.225
